This is the latest recevied weather packets stored in our database for station/object KC9GSD. If no packets are shown the sender has not sent any weather packets the latest 10 day(s).
| Time | Temp. | Humidity | Pressure | Rain* | Wind** | Luminosity | Snow |
|---|---|---|---|---|---|---|---|
| 1777759762 | 17.22° C | 37% | 1014.9 hPa | 0 mm | - | 58 W/m² | - |
| 1777759458 | 17.78° C | 36% | 1014.7 hPa | 0 mm | - | 61 W/m² | - |
| 1777759154 | 17.78° C | 36% | 1014.8 hPa | 0 mm | - | 85 W/m² | - |
| 1777758852 | 18.33° C | 38% | 1014.6 hPa | 0 mm | - | 214 W/m² | - |
| 1777758549 | 18.33° C | 39% | 1014.6 hPa | 0 mm | - | 400 W/m² | - |
| 1777758245 | 18.89° C | 35% | 1014.8 hPa | 0 mm | - | 421 W/m² | - |
| 1777757943 | 18.33° C | 38% | 1014.8 hPa | 0 mm | - | 440 W/m² | - |
| 1777757639 | 18.33° C | 38% | 1014.7 hPa | 0 mm | - | 348 W/m² | - |
| 1777757338 | 17.78° C | 38% | 1014.5 hPa | 0 mm | - | 484 W/m² | - |
| 1777757036 | 17.78° C | 36% | 1014.5 hPa | 0 mm | - | 102 W/m² | - |
| 1777756733 | 18.33° C | 35% | 1014.6 hPa | 0 mm | - | 149 W/m² | - |
| 1777756429 | 18.89° C | 34% | 1014.5 hPa | 0 mm | - | 579 W/m² | - |
| 1777756127 | 19.44° C | 41% | 1014.6 hPa | 0 mm | - | 583 W/m² | - |
| 1777755823 | 18.33° C | 40% | 1014.8 hPa | 0 mm | - | 605 W/m² | - |
| 1777755521 | 17.22° C | 39% | 1014.5 hPa | 0 mm | - | 364 W/m² | - |
| 1777755217 | 17.78° C | 36% | 1014.6 hPa | 0 mm | - | 549 W/m² | - |
| 1777754914 | 18.33° C | 38% | 1014.7 hPa | 0 mm | - | 108 W/m² | - |
| 1777754611 | 18.89° C | 37% | 1014.7 hPa | 0 mm | - | 671 W/m² | - |
| 1777754308 | 19.44° C | 36% | 1014.8 hPa | 0 mm | - | 660 W/m² | - |
| 1777754006 | 18.89° C | 35% | 1014.7 hPa | 0 mm | - | 647 W/m² | - |
| 1777753706 | 19.44° C | 37% | 1014.7 hPa | 0 mm | - | 666 W/m² | - |
| 1777753404 | 18.89° C | 38% | 1014.7 hPa | 0 mm | - | 660 W/m² | - |
| 1777753102 | 18.89° C | 36% | 1014.7 hPa | 0 mm | - | 671 W/m² | - |
| 1777752798 | 18.89° C | 37% | 1014.7 hPa | 0 mm | - | 688 W/m² | - |
| 1777752494 | 18.89° C | 38% | 1014.7 hPa | 0 mm | - | 701 W/m² | - |
* Rain latest hour (hover to see other rain measurements)
** Current wind speed in m/s (hover to see current wind gust speed)